Regional Weather Roundup
Issued by NWS Little Rock, AR

Home | Current Version | Previous Version | Text Only | Print | Product List | Glossary Off
Versions: 1 2 3 4 5 6 7 8 9 10 11 12 13 14 15 16 17 18 19 20 21 22 23 24 25 26 27 28 29 30 31 32 33 34 35 36 37 38 39 40 41 42 43 44 45 46 47 48 49 50

852
ASUS44 KLZK 032205
RWRLZK

WEATHER ROUNDUP FOR ARKANSAS
NATIONAL WEATHER SERVICE LITTLE ROCK AR
500 PM CDT TUE MAY 03 2016

NOTE: "FAIR" INDICATES FEW OR NO CLOUDS BELOW 12,000 FEET WITH NO
SIGNIFICANT WEATHER AND/OR OBSTRUCTIONS TO VISIBILITY.

ARZ001-003-010-029-032300-
NORTHWEST ARKANSAS

CITY           SKY/WX    TMP DP  RH WIND       PRES   REMARKS
FAYETTEVILLE   MOSUNNY   65  43  44 N5        30.03F
FORT SMITH     SUNNY     72  38  29 NW5       30.01F
HARRISON       SUNNY     63  38  39 VRB6      30.02F
BENTONVILLE    PTSUNNY   66  39  37 W10       30.04S
ROGERS         PTSUNNY   64  41  42 NW6       30.03F
SILOAM SPGS    SUNNY     66  41  39 NW9       30.05S
HIGHFILL       MOSUNNY   67  44  43 W8        30.03F
SPRINGDALE     PTSUNNY   64  41  42 N6        30.05F
$$

ARZ004-005-016-032300-
NORTH CENTRAL ARKANSAS

CITY           SKY/WX    TMP DP  RH WIND       PRES   REMARKS
BATESVILLE     PTSUNNY   70  43  37 W8        29.98F
FLIPPIN        PTSUNNY  N/A N/A N/A N13       29.97F
MTN HOME       PTSUNNY   64  39  39 VRB6      29.99S
$$

ARZ040-041-032300-
WEST CENTRAL ARKANSAS

CITY           SKY/WX    TMP DP  RH WIND       PRES   REMARKS
MENA           SUNNY     70  43  37 CALM      30.02F
MOUNT IDA      MOSUNNY   70  43  37 VRB5      29.99F
$$

ARZ009-017-025-026-028-032300-
NORTHEAST ARKANSAS

CITY           SKY/WX    TMP DP  RH WIND       PRES   REMARKS
CORNING          N/A     66  48  52 SW5       29.97F
JONESBORO      MOSUNNY   67  47  48 NW8       29.97F
NEWPORT        PTSUNNY   67  46  46 CALM      29.99F
WALNUT RIDGE   CLOUDY    68  45  42 N6        29.97S
BLYTHEVILLE    PTSUNNY   64  51  62 NW7       29.97F
NW BLYTHEVILLE PTSUNNY   64  50  59 N8        29.98S
$$

ARZ022-023-033-042-044-032300-
CENTRAL ARKANSAS

CITY           SKY/WX    TMP DP  RH WIND       PRES   REMARKS
LITTLE ROCK    PTSUNNY   71  45  39 NW7       29.99F
N LITTLE ROCK    N/A     68  46  44 N6        29.98F
JACKSONVILLE   MOSUNNY   69  45  42 W8        29.98F
SEARCY         SUNNY     68  46  45 VRB6      30.00F
HOT SPRINGS    SUNNY     69  43  38 VRB6      30.00F
RUSSELLVILLE   PTSUNNY   70  42  36 CALM      29.99F
$$

ARZ036-032300-
EAST ARKANSAS

CITY           SKY/WX    TMP DP  RH WIND       PRES   REMARKS
WEST MEMPHIS   MOSUNNY   64  50  60 NW5       29.97F
$$

ARZ050-053-066-070-073-032300-
SOUTHWEST ARKANSAS

CITY           SKY/WX    TMP DP  RH WIND       PRES   REMARKS
ARKADELPHIA    FAIR      70  51  50 NW7       30.00F
CAMDEN         MOSUNNY   68  46  45 N9        30.00F
TEXARKANA      MOSUNNY   68  47  46 N6        30.01F
EL DORADO      PTSUNNY   68  48  48 NW9       30.00S
DE QUEEN       SUNNY     72  45  37 VRB6      29.99F
$$

ARZ056-057-069-032300-
SOUTHEAST ARKANSAS

CITY           SKY/WX    TMP DP  RH WIND       PRES   REMARKS
PINE BLUFF     MOSUNNY   67  49  52 N9        30.00F
STUTTGART      MOSUNNY   66  46  48 NW9       30.00F
MONTICELLO     MOSUNNY   69  50  50 CALM      29.98F

$$






USA.gov is the U.S. government's official web portal to all federal, state and local government web resources and services.